DECAYED

STARLINK-5063, 53907 (Decayed)

Orbit data source: Space-Track

STARLINK-5063, 53907 was a payload satellite owned by SpaceX/Seattle (US) in LEO that was launched on Sat, 24 Sep 2022 UTC via an FALCON 9 launch vehicle from the Air Force Eastern Test Range (AFETR). Payload-class satellites include a variety of spacecraft equipped with specific instruments for various scientific and technological missions. These include communications satellites like Starlink; space stations such as the ISS; scientific satellites like the Hubble; Earth observation satellites from companies like Planet Labs, Umbra, and HawkEye 360; GPS; miniature CubeSats for education and research; and military/defense satellites.

Not visible in the next 10 days
Identifier
53907, 2022-119X
Orbit
Decayed
Country
Flag of USUS
Related business
Manufacturer
SpaceX/Seattle
Mission
Decayed Commercial Communications
Bus & Motor
STARLINK, Unknown motor
Mass
305 kg wet, ~290 kg dry
Launch date (UTC)
2022-09-24 (4 years ago)
Launch vehicle
FALCON 9
Launch site
Air Force Eastern Test Range (AFETR)
Object type
Payload
Rocket body
Debris
Shape & HBR
Box + 1 Pan, 10.1 m
Radar Cross Section
13.562 m², Large (>1 m²)

Expand to show TLE details & history
Last TLE update: 1 year ago

TLE from 1 year ago
0 STARLINK-5063
1 53907U 22119X   25057.92970142  .14990179  12528-4  32783-3 0  9990
2 53907  53.1933 182.4046 0004909 270.2950 192.6300 16.46432811134759
Epoch: 2025-02-26T22:18Z
TLE epoch observation values (Epoch: 2025-02-26T22:18:46.202Z)
Latitude
51.45562°
Longitude
161.66351°
Altitude
157.976 km
Speed
7.816 km/s
True Right ascension
19h 33m 28s
True Declination
51° 16' 21"
Sunlit
Object was in daylight at epoch
Visualization orbit readout
Latitude
Unknown
Longitude
Unknown
Altitude
Unknown
Speed
Unknown
Apparent Right ascension
Unknown
Apparent Declination
Unknown
Sunlit
N/A
Visualization observer readout
Local Sidereal Time
00:39:39
Azimuth
Unknown
Elevation
Unknown
Doppler factor
Unknown
Orbital elements
Apogee altitude
152.213 km
Perigee altitude
145.805 km
Semi-major axis
6,527.146 km
Eccentricity
0.00049
Inclination
53.1933°
RAAN
182.4046°
Arg. of periapsis
270.295°
True anomaly
192.61771°
Mean anomaly
192.63°
Eccentric anomaly
192.62385°
Mean motion
4.11584 °/min
Orbital period
87.47 mins
BSTAR
0.00032783
Loading maneuver chart data...
Computing Atmospheric mass density...
Loading historical data...
Loading historical data...
Loading historical data...
Loading historical data...
Loading historical data...
Loading historical data...
Loading historical data...

Documentation

Showing up to 5 results
|